owner,sensor,date,latitude,longitude,air_pressure(mBar),qcFlag 
WAVCIS,ioos:station:WAVCIS:CSI03:1,2013-04-01T00:00:00Z,29.4412,-92.0613,1009.66,11111222 
WAVCIS,ioos:station:WAVCIS:CSI03:1,2013-04-01T01:00:00Z,29.4412,-92.0613,1009.79,11111222 
WAVCIS,ioos:station:WAVCIS:CSI03:1,2013-04-01T02:00:00Z,29.4412,-92.0613,1008.47,11111222 
WAVCIS,ioos:station:WAVCIS:CSI03:1,2013-04-01T03:00:00Z,29.4412,-92.0613,1005.95,11111222 
WAVCIS,ioos:station:WAVCIS:CSI03:1,2013-04-01T04:00:00Z,29.4412,-92.0613,1005.51,11111222 
WAVCIS,ioos:station:WAVCIS:CSI03:1,2013-04-01T05:00:00Z,29.4412,-92.0613,1006.12,11111222 
WAVCIS,ioos:station:WAVCIS:CSI03:1,2013-04-01T06:00:00Z,29.4412,-92.0613,1008.19,11111222 
WAVCIS,ioos:station:WAVCIS:CSI03:1,2013-04-01T07:00:00Z,29.4412,-92.0613,1008.36,11111222 
WAVCIS,ioos:station:WAVCIS:CSI03:1,2013-04-01T08:00:00Z,29.4412,-92.0613,1008.72,11111222 
WAVCIS,ioos:station:WAVCIS:CSI03:1,2013-04-01T09:00:00Z,29.4412,-92.0613,1008.92,11111222 
WAVCIS,ioos:station:WAVCIS:CSI03:1,2013-04-01T10:00:00Z,29.4412,-92.0613,1008.96,11111222 
WAVCIS,ioos:station:WAVCIS:CSI03:1,2013-04-01T11:00:00Z,29.4412,-92.0613,1010.04,11111222 
WAVCIS,ioos:station:WAVCIS:CSI03:1,2013-04-01T12:00:00Z,29.4412,-92.0613,1010.77,11111222 
WAVCIS,ioos:station:WAVCIS:CSI03:1,2013-04-01T13:00:00Z,29.4412,-92.0613,1011.93,11111222 
WAVCIS,ioos:station:WAVCIS:CSI03:1,2013-04-01T14:00:00Z,29.4412,-92.0613,1012.48,11111222 
WAVCIS,ioos:station:WAVCIS:CSI03:1,2013-04-01T15:00:00Z,29.4412,-92.0613,1012.63,11111222 
WAVCIS,ioos:station:WAVCIS:CSI03:1,2013-04-01T16:00:00Z,29.4412,-92.0613,1012.68,11111222 
WAVCIS,ioos:station:WAVCIS:CSI03:1,2013-04-01T17:00:00Z,29.4412,-92.0613,1012.62,11111222 
WAVCIS,ioos:station:WAVCIS:CSI03:1,2013-04-01T18:00:00Z,29.4412,-92.0613,1012.25,11111222 
WAVCIS,ioos:station:WAVCIS:CSI03:1,2013-04-01T19:00:00Z,29.4412,-92.0613,1011.67,11111222 
WAVCIS,ioos:station:WAVCIS:CSI03:1,2013-04-01T20:00:00Z,29.4412,-92.0613,1010.89,11111222 
WAVCIS,ioos:station:WAVCIS:CSI03:1,2013-04-01T21:00:00Z,29.4412,-92.0613,1010.13,11111222 
WAVCIS,ioos:station:WAVCIS:CSI03:1,2013-04-01T22:00:00Z,29.4412,-92.0613,1009.62,11111222 
WAVCIS,ioos:station:WAVCIS:CSI03:1,2013-04-01T23:00:00Z,29.4412,-92.0613,1009.26,11111222 
WAVCIS,ioos:station:WAVCIS:CSI03:1,2013-04-02T00:00:00Z,29.4412,-92.0613,1009.36,11111222 
WAVCIS,ioos:station:WAVCIS:CSI03:1,2013-04-02T01:00:00Z,29.4412,-92.0613,1009.43,11111222 
WAVCIS,ioos:station:WAVCIS:CSI03:1,2013-04-02T02:00:00Z,29.4412,-92.0613,1010.05,11111222 
WAVCIS,ioos:station:WAVCIS:CSI03:1,2013-04-02T03:00:00Z,29.4412,-92.0613,1010.59,11111222 
WAVCIS,ioos:station:WAVCIS:CSI03:1,2013-04-02T04:00:00Z,29.4412,-92.0613,1011.07,11111222 
WAVCIS,ioos:station:WAVCIS:CSI03:1,2013-04-02T05:00:00Z,29.4412,-92.0613,1010.88,11111222 
WAVCIS,ioos:station:WAVCIS:CSI03:1,2013-04-02T06:00:00Z,29.4412,-92.0613,1010.66,11111222 
WAVCIS,ioos:station:WAVCIS:CSI03:1,2013-04-02T07:00:00Z,29.4412,-92.0613,1010.54,11111222 
WAVCIS,ioos:station:WAVCIS:CSI03:1,2013-04-02T08:00:00Z,29.4412,-92.0613,1010.68,11111222 
WAVCIS,ioos:station:WAVCIS:CSI03:1,2013-04-02T09:00:00Z,29.4412,-92.0613,1010.39,11111222 
WAVCIS,ioos:station:WAVCIS:CSI03:1,2013-04-02T10:00:00Z,29.4412,-92.0613,1010.25,11111222 
WAVCIS,ioos:station:WAVCIS:CSI03:1,2013-04-02T11:00:00Z,29.4412,-92.0613,1011.0,11111222 
WAVCIS,ioos:station:WAVCIS:CSI03:1,2013-04-02T12:00:00Z,29.4412,-92.0613,1011.09,11111222 
WAVCIS,ioos:station:WAVCIS:CSI03:1,2013-04-02T13:00:00Z,29.4412,-92.0613,1011.16,11111222 
WAVCIS,ioos:station:WAVCIS:CSI03:1,2013-04-02T14:00:00Z,29.4412,-92.0613,1011.36,11111222 
WAVCIS,ioos:station:WAVCIS:CSI03:1,2013-04-02T15:00:00Z,29.4412,-92.0613,1012.58,11111222 
WAVCIS,ioos:station:WAVCIS:CSI03:1,2013-04-02T16:00:00Z,29.4412,-92.0613,1012.69,11111222 
WAVCIS,ioos:station:WAVCIS:CSI03:1,2013-04-02T17:00:00Z,29.4412,-92.0613,1011.38,11111222 
WAVCIS,ioos:station:WAVCIS:CSI03:1,2013-04-02T18:00:00Z,29.4412,-92.0613,1009.3,11111222 
WAVCIS,ioos:station:WAVCIS:CSI03:1,2013-04-02T19:00:00Z,29.4412,-92.0613,1009.27,11111222 
WAVCIS,ioos:station:WAVCIS:CSI03:1,2013-04-02T20:00:00Z,29.4412,-92.0613,1008.66,11111222 
WAVCIS,ioos:station:WAVCIS:CSI03:1,2013-04-02T21:00:00Z,29.4412,-92.0613,1008.5,11111222 
WAVCIS,ioos:station:WAVCIS:CSI03:1,2013-04-02T22:00:00Z,29.4412,-92.0613,1007.67,11111222 
WAVCIS,ioos:station:WAVCIS:CSI03:1,2013-04-02T23:00:00Z,29.4412,-92.0613,1007.55,11111222 
WAVCIS,ioos:station:WAVCIS:CSI03:1,2013-04-03T00:00:00Z,29.4412,-92.0613,1008.0,11111222 
WAVCIS,ioos:station:WAVCIS:CSI03:1,2013-04-03T01:00:00Z,29.4412,-92.0613,1007.49,11111222 
WAVCIS,ioos:station:WAVCIS:CSI03:1,2013-04-03T02:00:00Z,29.4412,-92.0613,1007.36,11111222 
WAVCIS,ioos:station:WAVCIS:CSI03:1,2013-04-03T03:00:00Z,29.4412,-92.0613,1007.98,11111222 
WAVCIS,ioos:station:WAVCIS:CSI03:1,2013-04-03T04:00:00Z,29.4412,-92.0613,1007.11,11111222 
WAVCIS,ioos:station:WAVCIS:CSI03:1,2013-04-03T05:00:00Z,29.4412,-92.0613,1006.39,11111222 
WAVCIS,ioos:station:WAVCIS:CSI03:1,2013-04-03T06:00:00Z,29.4412,-92.0613,1005.72,11111222 
WAVCIS,ioos:station:WAVCIS:CSI03:1,2013-04-03T07:00:00Z,29.4412,-92.0613,1005.5,11111222 
WAVCIS,ioos:station:WAVCIS:CSI03:1,2013-04-03T08:00:00Z,29.4412,-92.0613,1003.8,11111222 
WAVCIS,ioos:station:WAVCIS:CSI03:1,2013-04-03T09:00:00Z,29.4412,-92.0613,1005.49,11111222 
WAVCIS,ioos:station:WAVCIS:CSI03:1,2013-04-03T10:00:00Z,29.4412,-92.0613,1006.25,11111222 
WAVCIS,ioos:station:WAVCIS:CSI03:1,2013-04-03T11:00:00Z,29.4412,-92.0613,1003.99,11111222 
WAVCIS,ioos:station:WAVCIS:CSI03:1,2013-04-03T12:00:00Z,29.4412,-92.0613,1006.73,11111222 
WAVCIS,ioos:station:WAVCIS:CSI03:1,2013-04-03T13:00:00Z,29.4412,-92.0613,1003.3,11111222 
WAVCIS,ioos:station:WAVCIS:CSI03:1,2013-04-03T14:00:00Z,29.4412,-92.0613,999.851,11111222 
WAVCIS,ioos:station:WAVCIS:CSI03:1,2013-04-03T15:00:00Z,29.4412,-92.0613,1002.226,11111222 
WAVCIS,ioos:station:WAVCIS:CSI03:1,2013-04-03T16:00:00Z,29.4412,-92.0613,1005.24,11111222 
WAVCIS,ioos:station:WAVCIS:CSI03:1,2013-04-03T17:00:00Z,29.4412,-92.0613,1006.29,11111222 
WAVCIS,ioos:station:WAVCIS:CSI03:1,2013-04-03T18:00:00Z,29.4412,-92.0613,1006.4,11111222 
WAVCIS,ioos:station:WAVCIS:CSI03:1,2013-04-03T19:00:00Z,29.4412,-92.0613,1006.01,11111222 
WAVCIS,ioos:station:WAVCIS:CSI03:1,2013-04-03T20:00:00Z,29.4412,-92.0613,1005.07,11111222 
WAVCIS,ioos:station:WAVCIS:CSI03:1,2013-04-03T21:00:00Z,29.4412,-92.0613,1004.5,11111222 
WAVCIS,ioos:station:WAVCIS:CSI03:1,2013-04-03T22:00:00Z,29.4412,-92.0613,1004.41,11111222 
WAVCIS,ioos:station:WAVCIS:CSI03:1,2013-04-03T23:00:00Z,29.4412,-92.0613,1005.15,11111222 
WAVCIS,ioos:station:WAVCIS:CSI03:1,2013-04-04T00:00:00Z,29.4412,-92.0613,1005.94,11111222 
WAVCIS,ioos:station:WAVCIS:CSI03:1,2013-04-04T01:00:00Z,29.4412,-92.0613,1007.61,11111222 
WAVCIS,ioos:station:WAVCIS:CSI03:1,2013-04-04T02:00:00Z,29.4412,-92.0613,1008.1,11111222 
WAVCIS,ioos:station:WAVCIS:CSI03:1,2013-04-04T03:00:00Z,29.4412,-92.0613,1009.11,11111222 
WAVCIS,ioos:station:WAVCIS:CSI03:1,2013-04-04T04:00:00Z,29.4412,-92.0613,1009.99,11111222 
WAVCIS,ioos:station:WAVCIS:CSI03:1,2013-04-04T05:00:00Z,29.4412,-92.0613,1009.33,11111222 
WAVCIS,ioos:station:WAVCIS:CSI03:1,2013-04-04T06:00:00Z,29.4412,-92.0613,1008.26,11111222 
WAVCIS,ioos:station:WAVCIS:CSI03:1,2013-04-04T07:00:00Z,29.4412,-92.0613,1007.57,11111222 
WAVCIS,ioos:station:WAVCIS:CSI03:1,2013-04-04T08:00:00Z,29.4412,-92.0613,1008.35,11111222 
WAVCIS,ioos:station:WAVCIS:CSI03:1,2013-04-04T09:00:00Z,29.4412,-92.0613,1008.34,11111222 
WAVCIS,ioos:station:WAVCIS:CSI03:1,2013-04-04T10:00:00Z,29.4412,-92.0613,1008.88,11111222 
WAVCIS,ioos:station:WAVCIS:CSI03:1,2013-04-04T11:00:00Z,29.4412,-92.0613,1008.94,11111222 
WAVCIS,ioos:station:WAVCIS:CSI03:1,2013-04-04T12:00:00Z,29.4412,-92.0613,1009.6,11111222 
WAVCIS,ioos:station:WAVCIS:CSI03:1,2013-04-04T13:00:00Z,29.4412,-92.0613,1010.33,11111222 
WAVCIS,ioos:station:WAVCIS:CSI03:1,2013-04-04T14:00:00Z,29.4412,-92.0613,1011.11,11111222 
WAVCIS,ioos:station:WAVCIS:CSI03:1,2013-04-04T15:00:00Z,29.4412,-92.0613,1011.79,11111222 
WAVCIS,ioos:station:WAVCIS:CSI03:1,2013-04-04T16:00:00Z,29.4412,-92.0613,1012.02,11111222 
WAVCIS,ioos:station:WAVCIS:CSI03:1,2013-04-04T17:00:00Z,29.4412,-92.0613,1012.16,11111222 
WAVCIS,ioos:station:WAVCIS:CSI03:1,2013-04-04T18:00:00Z,29.4412,-92.0613,1011.42,11111222 
WAVCIS,ioos:station:WAVCIS:CSI03:1,2013-04-04T19:00:00Z,29.4412,-92.0613,1010.69,11111222 
WAVCIS,ioos:station:WAVCIS:CSI03:1,2013-04-04T20:00:00Z,29.4412,-92.0613,1009.62,11111222 
WAVCIS,ioos:station:WAVCIS:CSI03:1,2013-04-04T21:00:00Z,29.4412,-92.0613,1009.34,11111222 
WAVCIS,ioos:station:WAVCIS:CSI03:1,2013-04-04T22:00:00Z,29.4412,-92.0613,1009.35,11111222 
WAVCIS,ioos:station:WAVCIS:CSI03:1,2013-04-04T23:00:00Z,29.4412,-92.0613,1009.85,11111222 
WAVCIS,ioos:station:WAVCIS:CSI03:1,2013-04-05T00:00:00Z,29.4412,-92.0613,1010.01,11111222 
WAVCIS,ioos:station:WAVCIS:CSI03:1,2013-04-05T01:00:00Z,29.4412,-92.0613,1010.48,11111222 
WAVCIS,ioos:station:WAVCIS:CSI03:1,2013-04-05T02:00:00Z,29.4412,-92.0613,1011.05,11111222 
WAVCIS,ioos:station:WAVCIS:CSI03:1,2013-04-05T03:00:00Z,29.4412,-92.0613,1012.07,11111222 
WAVCIS,ioos:station:WAVCIS:CSI03:1,2013-04-05T04:00:00Z,29.4412,-92.0613,1012.46,11111222 
WAVCIS,ioos:station:WAVCIS:CSI03:1,2013-04-05T05:00:00Z,29.4412,-92.0613,1012.69,11111222 
WAVCIS,ioos:station:WAVCIS:CSI03:1,2013-04-05T06:00:00Z,29.4412,-92.0613,1012.94,11111222 
WAVCIS,ioos:station:WAVCIS:CSI03:1,2013-04-05T07:00:00Z,29.4412,-92.0613,1012.98,11111222 
WAVCIS,ioos:station:WAVCIS:CSI03:1,2013-04-05T08:00:00Z,29.4412,-92.0613,1012.89,11111222 
WAVCIS,ioos:station:WAVCIS:CSI03:1,2013-04-05T09:00:00Z,29.4412,-92.0613,1012.83,11111222 
WAVCIS,ioos:station:WAVCIS:CSI03:1,2013-04-05T10:00:00Z,29.4412,-92.0613,1013.16,11111222 
WAVCIS,ioos:station:WAVCIS:CSI03:1,2013-04-05T11:00:00Z,29.4412,-92.0613,1013.61,11111222 
WAVCIS,ioos:station:WAVCIS:CSI03:1,2013-04-05T12:00:00Z,29.4412,-92.0613,1014.3,11111222 
WAVCIS,ioos:station:WAVCIS:CSI03:1,2013-04-05T13:00:00Z,29.4412,-92.0613,1015.38,11111222 
WAVCIS,ioos:station:WAVCIS:CSI03:1,2013-04-05T14:00:00Z,29.4412,-92.0613,1015.82,11111222 
WAVCIS,ioos:station:WAVCIS:CSI03:1,2013-04-05T15:00:00Z,29.4412,-92.0613,1015.77,11111222 
WAVCIS,ioos:station:WAVCIS:CSI03:1,2013-04-05T16:00:00Z,29.4412,-92.0613,1016.13,11111222 
WAVCIS,ioos:station:WAVCIS:CSI03:1,2013-04-05T17:00:00Z,29.4412,-92.0613,1015.68,11111222 
WAVCIS,ioos:station:WAVCIS:CSI03:1,2013-04-05T18:00:00Z,29.4412,-92.0613,1015.25,11111222 
WAVCIS,ioos:station:WAVCIS:CSI03:1,2013-04-05T19:00:00Z,29.4412,-92.0613,1014.67,11111222 
WAVCIS,ioos:station:WAVCIS:CSI03:1,2013-04-05T20:00:00Z,29.4412,-92.0613,1013.92,11111222 
WAVCIS,ioos:station:WAVCIS:CSI03:1,2013-04-05T21:00:00Z,29.4412,-92.0613,1012.98,11111222 
WAVCIS,ioos:station:WAVCIS:CSI03:1,2013-04-05T22:00:00Z,29.4412,-92.0613,1012.64,11111222 
WAVCIS,ioos:station:WAVCIS:CSI03:1,2013-04-05T23:00:00Z,29.4412,-92.0613,1012.43,11111222 
WAVCIS,ioos:station:WAVCIS:CSI03:1,2013-04-06T00:00:00Z,29.4412,-92.0613,1012.92,11111222 
WAVCIS,ioos:station:WAVCIS:CSI03:1,2013-04-06T01:00:00Z,29.4412,-92.0613,1013.53,11111222 
WAVCIS,ioos:station:WAVCIS:CSI03:1,2013-04-06T02:00:00Z,29.4412,-92.0613,1013.77,11111222 
WAVCIS,ioos:station:WAVCIS:CSI03:1,2013-04-06T03:00:00Z,29.4412,-92.0613,1014.2,11111222 
WAVCIS,ioos:station:WAVCIS:CSI03:1,2013-04-06T04:00:00Z,29.4412,-92.0613,1014.05,11111222 
WAVCIS,ioos:station:WAVCIS:CSI03:1,2013-04-06T05:00:00Z,29.4412,-92.0613,1014.13,11111222 
WAVCIS,ioos:station:WAVCIS:CSI03:1,2013-04-06T06:00:00Z,29.4412,-92.0613,1013.74,11111222 
WAVCIS,ioos:station:WAVCIS:CSI03:1,2013-04-06T07:00:00Z,29.4412,-92.0613,1013.87,11111222 
WAVCIS,ioos:station:WAVCIS:CSI03:1,2013-04-06T08:00:00Z,29.4412,-92.0613,1013.62,11111222 
WAVCIS,ioos:station:WAVCIS:CSI03:1,2013-04-06T09:00:00Z,29.4412,-92.0613,1013.24,11111222 
WAVCIS,ioos:station:WAVCIS:CSI03:1,2013-04-06T10:00:00Z,29.4412,-92.0613,1013.03,11111222 
WAVCIS,ioos:station:WAVCIS:CSI03:1,2013-04-06T11:00:00Z,29.4412,-92.0613,1012.98,11111222 
WAVCIS,ioos:station:WAVCIS:CSI03:1,2013-04-06T12:00:00Z,29.4412,-92.0613,1013.54,11111222 
WAVCIS,ioos:station:WAVCIS:CSI03:1,2013-04-06T13:00:00Z,29.4412,-92.0613,1013.15,11111222 
WAVCIS,ioos:station:WAVCIS:CSI03:1,2013-04-06T14:00:00Z,29.4412,-92.0613,1013.17,11111222 
WAVCIS,ioos:station:WAVCIS:CSI03:1,2013-04-06T15:00:00Z,29.4412,-92.0613,1013.73,11111222 
WAVCIS,ioos:station:WAVCIS:CSI03:1,2013-04-06T16:00:00Z,29.4412,-92.0613,1014.24,11111222 
WAVCIS,ioos:station:WAVCIS:CSI03:1,2013-04-06T17:00:00Z,29.4412,-92.0613,1014.83,11111222 
WAVCIS,ioos:station:WAVCIS:CSI03:1,2013-04-06T18:00:00Z,29.4412,-92.0613,1014.77,11111222 
WAVCIS,ioos:station:WAVCIS:CSI03:1,2013-04-06T19:00:00Z,29.4412,-92.0613,1013.97,11111222 
WAVCIS,ioos:station:WAVCIS:CSI03:1,2013-04-06T20:00:00Z,29.4412,-92.0613,1012.68,11111222 
WAVCIS,ioos:station:WAVCIS:CSI03:1,2013-04-06T21:00:00Z,29.4412,-92.0613,1012.04,11111222 
WAVCIS,ioos:station:WAVCIS:CSI03:1,2013-04-06T22:00:00Z,29.4412,-92.0613,1011.62,11111222 
WAVCIS,ioos:station:WAVCIS:CSI03:1,2013-04-06T23:00:00Z,29.4412,-92.0613,1011.2,11111222 
WAVCIS,ioos:station:WAVCIS:CSI03:1,2013-04-07T00:00:00Z,29.4412,-92.0613,1011.07,11111222 
WAVCIS,ioos:station:WAVCIS:CSI03:1,2013-04-07T01:00:00Z,29.4412,-92.0613,1011.06,11111222 
WAVCIS,ioos:station:WAVCIS:CSI03:1,2013-04-07T02:00:00Z,29.4412,-92.0613,1010.74,11111222 
WAVCIS,ioos:station:WAVCIS:CSI03:1,2013-04-07T03:00:00Z,29.4412,-92.0613,1010.85,11111222 
WAVCIS,ioos:station:WAVCIS:CSI03:1,2013-04-07T04:00:00Z,29.4412,-92.0613,1011.02,11111222 
WAVCIS,ioos:station:WAVCIS:CSI03:1,2013-04-07T05:00:00Z,29.4412,-92.0613,1010.88,11111222 
WAVCIS,ioos:station:WAVCIS:CSI03:1,2013-04-07T06:00:00Z,29.4412,-92.0613,1010.22,11111222 
WAVCIS,ioos:station:WAVCIS:CSI03:1,2013-04-07T07:00:00Z,29.4412,-92.0613,1009.94,11111222 
WAVCIS,ioos:station:WAVCIS:CSI03:1,2013-04-07T08:00:00Z,29.4412,-92.0613,1009.59,11111222 
WAVCIS,ioos:station:WAVCIS:CSI03:1,2013-04-07T09:00:00Z,29.4412,-92.0613,1009.78,11111222 
WAVCIS,ioos:station:WAVCIS:CSI03:1,2013-04-07T10:00:00Z,29.4412,-92.0613,1009.52,11111222 
WAVCIS,ioos:station:WAVCIS:CSI03:1,2013-04-07T11:00:00Z,29.4412,-92.0613,1009.64,11111222 
WAVCIS,ioos:station:WAVCIS:CSI03:1,2013-04-07T12:00:00Z,29.4412,-92.0613,1010.39,11111222 
WAVCIS,ioos:station:WAVCIS:CSI03:1,2013-04-07T13:00:00Z,29.4412,-92.0613,1010.96,11111222 
WAVCIS,ioos:station:WAVCIS:CSI03:1,2013-04-07T14:00:00Z,29.4412,-92.0613,1010.98,11111222 
WAVCIS,ioos:station:WAVCIS:CSI03:1,2013-04-07T15:00:00Z,29.4412,-92.0613,1011.36,11111222 
WAVCIS,ioos:station:WAVCIS:CSI03:1,2013-04-07T16:00:00Z,29.4412,-92.0613,1011.84,11111222 
WAVCIS,ioos:station:WAVCIS:CSI03:1,2013-04-07T17:00:00Z,29.4412,-92.0613,1011.84,11111222 
WAVCIS,ioos:station:WAVCIS:CSI03:1,2013-04-07T18:00:00Z,29.4412,-92.0613,1011.4,11111222 
WAVCIS,ioos:station:WAVCIS:CSI03:1,2013-04-07T19:00:00Z,29.4412,-92.0613,1010.86,11111222 
WAVCIS,ioos:station:WAVCIS:CSI03:1,2013-04-07T20:00:00Z,29.4412,-92.0613,1009.86,11111222 
WAVCIS,ioos:station:WAVCIS:CSI03:1,2013-04-07T21:00:00Z,29.4412,-92.0613,1009.27,11111222 
WAVCIS,ioos:station:WAVCIS:CSI03:1,2013-04-07T22:00:00Z,29.4412,-92.0613,1008.51,11111222 
WAVCIS,ioos:station:WAVCIS:CSI03:1,2013-04-07T23:00:00Z,29.4412,-92.0613,1008.31,11111222 
WAVCIS,ioos:station:WAVCIS:CSI03:1,2013-04-08T00:00:00Z,29.4412,-92.0613,1007.87,11111222 
WAVCIS,ioos:station:WAVCIS:CSI03:1,2013-04-08T01:00:00Z,29.4412,-92.0613,1007.33,11111222 
WAVCIS,ioos:station:WAVCIS:CSI03:1,2013-04-08T02:00:00Z,29.4412,-92.0613,1007.96,11111222 
WAVCIS,ioos:station:WAVCIS:CSI03:1,2013-04-08T03:00:00Z,29.4412,-92.0613,1008.2,11111222 
WAVCIS,ioos:station:WAVCIS:CSI03:1,2013-04-08T04:00:00Z,29.4412,-92.0613,1008.2,11111222 
WAVCIS,ioos:station:WAVCIS:CSI03:1,2013-04-08T05:00:00Z,29.4412,-92.0613,1007.42,11111222 
WAVCIS,ioos:station:WAVCIS:CSI03:1,2013-04-08T06:00:00Z,29.4412,-92.0613,1007.17,11111222 
WAVCIS,ioos:station:WAVCIS:CSI03:1,2013-04-08T07:00:00Z,29.4412,-92.0613,1007.35,11111222 
WAVCIS,ioos:station:WAVCIS:CSI03:1,2013-04-08T08:00:00Z,29.4412,-92.0613,1006.59,11111222 
WAVCIS,ioos:station:WAVCIS:CSI03:1,2013-04-08T09:00:00Z,29.4412,-92.0613,1006.33,11111222 
WAVCIS,ioos:station:WAVCIS:CSI03:1,2013-04-08T10:00:00Z,29.4412,-92.0613,1006.27,11111222 
WAVCIS,ioos:station:WAVCIS:CSI03:1,2013-04-08T11:00:00Z,29.4412,-92.0613,1006.61,11111222 
WAVCIS,ioos:station:WAVCIS:CSI03:1,2013-04-08T12:00:00Z,29.4412,-92.0613,1007.34,11111222 
WAVCIS,ioos:station:WAVCIS:CSI03:1,2013-04-08T13:00:00Z,29.4412,-92.0613,1007.25,11111222 
WAVCIS,ioos:station:WAVCIS:CSI03:1,2013-04-08T14:00:00Z,29.4412,-92.0613,1008.17,11111222 
WAVCIS,ioos:station:WAVCIS:CSI03:1,2013-04-08T15:00:00Z,29.4412,-92.0613,1008.14,11111222 
WAVCIS,ioos:station:WAVCIS:CSI03:1,2013-04-08T16:00:00Z,29.4412,-92.0613,1008.37,11111222 
WAVCIS,ioos:station:WAVCIS:CSI03:1,2013-04-08T17:00:00Z,29.4412,-92.0613,1008.34,11111222 
WAVCIS,ioos:station:WAVCIS:CSI03:1,2013-04-08T18:00:00Z,29.4412,-92.0613,1007.98,11111222 
WAVCIS,ioos:station:WAVCIS:CSI03:1,2013-04-08T19:00:00Z,29.4412,-92.0613,1007.64,11111222 
WAVCIS,ioos:station:WAVCIS:CSI03:1,2013-04-08T20:00:00Z,29.4412,-92.0613,1006.92,11111222 
WAVCIS,ioos:station:WAVCIS:CSI03:1,2013-04-08T21:00:00Z,29.4412,-92.0613,1006.57,11111222 
WAVCIS,ioos:station:WAVCIS:CSI03:1,2013-04-08T22:00:00Z,29.4412,-92.0613,1006.43,11111222 
WAVCIS,ioos:station:WAVCIS:CSI03:1,2013-04-08T23:00:00Z,29.4412,-92.0613,1006.2,11111222 
WAVCIS,ioos:station:WAVCIS:CSI03:1,2013-04-09T00:00:00Z,29.4412,-92.0613,1006.81,11111222 
WAVCIS,ioos:station:WAVCIS:CSI03:1,2013-04-09T01:00:00Z,29.4412,-92.0613,1006.73,11111222 
WAVCIS,ioos:station:WAVCIS:CSI03:1,2013-04-09T02:00:00Z,29.4412,-92.0613,1006.75,11111222 
WAVCIS,ioos:station:WAVCIS:CSI03:1,2013-04-09T03:00:00Z,29.4412,-92.0613,1006.97,11111222 
WAVCIS,ioos:station:WAVCIS:CSI03:1,2013-04-09T04:00:00Z,29.4412,-92.0613,1007.01,11111222 
WAVCIS,ioos:station:WAVCIS:CSI03:1,2013-04-09T05:00:00Z,29.4412,-92.0613,1006.48,11111222 
WAVCIS,ioos:station:WAVCIS:CSI03:1,2013-04-09T06:00:00Z,29.4412,-92.0613,1006.17,11111222 
WAVCIS,ioos:station:WAVCIS:CSI03:1,2013-04-09T07:00:00Z,29.4412,-92.0613,1005.15,11111222 
WAVCIS,ioos:station:WAVCIS:CSI03:1,2013-04-09T08:00:00Z,29.4412,-92.0613,1004.71,11111222 
WAVCIS,ioos:station:WAVCIS:CSI03:1,2013-04-09T09:00:00Z,29.4412,-92.0613,1003.81,11111222 
WAVCIS,ioos:station:WAVCIS:CSI03:1,2013-04-09T10:00:00Z,29.4412,-92.0613,1004.77,11111222 
WAVCIS,ioos:station:WAVCIS:CSI03:1,2013-04-09T11:00:00Z,29.4412,-92.0613,1005.53,11111222 
WAVCIS,ioos:station:WAVCIS:CSI03:1,2013-04-09T12:00:00Z,29.4412,-92.0613,1006.09,11111222 
WAVCIS,ioos:station:WAVCIS:CSI03:1,2013-04-09T13:00:00Z,29.4412,-92.0613,1006.2,11111222 
WAVCIS,ioos:station:WAVCIS:CSI03:1,2013-04-09T14:00:00Z,29.4412,-92.0613,1006.29,11111222 
WAVCIS,ioos:station:WAVCIS:CSI03:1,2013-04-09T15:00:00Z,29.4412,-92.0613,1006.61,11111222 
WAVCIS,ioos:station:WAVCIS:CSI03:1,2013-04-09T16:00:00Z,29.4412,-92.0613,1007.0,11111222 
WAVCIS,ioos:station:WAVCIS:CSI03:1,2013-04-09T17:00:00Z,29.4412,-92.0613,1006.71,11111222 
WAVCIS,ioos:station:WAVCIS:CSI03:1,2013-04-09T18:00:00Z,29.4412,-92.0613,1005.94,11111222 
WAVCIS,ioos:station:WAVCIS:CSI03:1,2013-04-09T19:00:00Z,29.4412,-92.0613,1005.98,11111222 
WAVCIS,ioos:station:WAVCIS:CSI03:1,2013-04-09T20:00:00Z,29.4412,-92.0613,1005.44,11111222 
WAVCIS,ioos:station:WAVCIS:CSI03:1,2013-04-09T21:00:00Z,29.4412,-92.0613,1005.57,11111222 
WAVCIS,ioos:station:WAVCIS:CSI03:1,2013-04-09T22:00:00Z,29.4412,-92.0613,1004.3,11111222 
WAVCIS,ioos:station:WAVCIS:CSI03:1,2013-04-09T23:00:00Z,29.4412,-92.0613,1005.97,11111222 
WAVCIS,ioos:station:WAVCIS:CSI03:1,2013-04-10T00:00:00Z,29.4412,-92.0613,1005.85,11111222 
WAVCIS,ioos:station:WAVCIS:CSI03:1,2013-04-10T01:00:00Z,29.4412,-92.0613,1006.21,11111222 
WAVCIS,ioos:station:WAVCIS:CSI03:1,2013-04-10T02:00:00Z,29.4412,-92.0613,1004.54,11111222 
WAVCIS,ioos:station:WAVCIS:CSI03:1,2013-04-10T03:00:00Z,29.4412,-92.0613,1005.19,11111222 
WAVCIS,ioos:station:WAVCIS:CSI03:1,2013-04-10T04:00:00Z,29.4412,-92.0613,1005.81,11111222 
WAVCIS,ioos:station:WAVCIS:CSI03:1,2013-04-10T05:00:00Z,29.4412,-92.0613,1005.41,11111222 
WAVCIS,ioos:station:WAVCIS:CSI03:1,2013-04-10T06:00:00Z,29.4412,-92.0613,1005.06,11111222 
WAVCIS,ioos:station:WAVCIS:CSI03:1,2013-04-10T07:00:00Z,29.4412,-92.0613,1005.38,11111222 
WAVCIS,ioos:station:WAVCIS:CSI03:1,2013-04-10T08:00:00Z,29.4412,-92.0613,1001.708,11111222 
WAVCIS,ioos:station:WAVCIS:CSI03:1,2013-04-10T09:00:00Z,29.4412,-92.0613,1001.987,11111222 
WAVCIS,ioos:station:WAVCIS:CSI03:1,2013-04-10T10:00:00Z,29.4412,-92.0613,1002.645,11111222 
WAVCIS,ioos:station:WAVCIS:CSI03:1,2013-04-10T11:00:00Z,29.4412,-92.0613,999.388,11111222 
WAVCIS,ioos:station:WAVCIS:CSI03:1,2013-04-10T12:00:00Z,29.4412,-92.0613,1000.932,11111222 
WAVCIS,ioos:station:WAVCIS:CSI03:1,2013-04-10T13:00:00Z,29.4412,-92.0613,1003.62,11111222 
WAVCIS,ioos:station:WAVCIS:CSI03:1,2013-04-10T14:00:00Z,29.4412,-92.0613,1004.58,11111222 
WAVCIS,ioos:station:WAVCIS:CSI03:1,2013-04-10T15:00:00Z,29.4412,-92.0613,1004.77,11111222 
WAVCIS,ioos:station:WAVCIS:CSI03:1,2013-04-10T16:00:00Z,29.4412,-92.0613,1004.91,11111222 
WAVCIS,ioos:station:WAVCIS:CSI03:1,2013-04-10T17:00:00Z,29.4412,-92.0613,1004.94,11111222 
WAVCIS,ioos:station:WAVCIS:CSI03:1,2013-04-10T18:00:00Z,29.4412,-92.0613,1004.33,11111222 
WAVCIS,ioos:station:WAVCIS:CSI03:1,2013-04-10T19:00:00Z,29.4412,-92.0613,1003.44,11111222 
WAVCIS,ioos:station:WAVCIS:CSI03:1,2013-04-10T20:00:00Z,29.4412,-92.0613,1002.72,11111222 
WAVCIS,ioos:station:WAVCIS:CSI03:1,2013-04-10T21:00:00Z,29.4412,-92.0613,1002.572,11111222 
WAVCIS,ioos:station:WAVCIS:CSI03:1,2013-04-10T22:00:00Z,29.4412,-92.0613,1002.629,11111222 
WAVCIS,ioos:station:WAVCIS:CSI03:1,2013-04-10T23:00:00Z,29.4412,-92.0613,1002.508,11111222 
WAVCIS,ioos:station:WAVCIS:CSI03:1,2013-04-11T00:00:00Z,29.4412,-92.0613,1002.301,11111222 
WAVCIS,ioos:station:WAVCIS:CSI03:1,2013-04-11T01:00:00Z,29.4412,-92.0613,1001.997,11111222 
WAVCIS,ioos:station:WAVCIS:CSI03:1,2013-04-11T02:00:00Z,29.4412,-92.0613,1001.944,11111222 
WAVCIS,ioos:station:WAVCIS:CSI03:1,2013-04-11T03:00:00Z,29.4412,-92.0613,1001.412,11111222 
WAVCIS,ioos:station:WAVCIS:CSI03:1,2013-04-11T04:00:00Z,29.4412,-92.0613,1000.842,11111222 
WAVCIS,ioos:station:WAVCIS:CSI03:1,2013-04-11T05:00:00Z,29.4412,-92.0613,999.717,11111222 
WAVCIS,ioos:station:WAVCIS:CSI03:1,2013-04-11T06:00:00Z,29.4412,-92.0613,999.695,11111222 
WAVCIS,ioos:station:WAVCIS:CSI03:1,2013-04-11T07:00:00Z,29.4412,-92.0613,999.965,11111222 
WAVCIS,ioos:station:WAVCIS:CSI03:1,2013-04-11T08:00:00Z,29.4412,-92.0613,999.655,11111222 
WAVCIS,ioos:station:WAVCIS:CSI03:1,2013-04-11T09:00:00Z,29.4412,-92.0613,999.533,11111222 
WAVCIS,ioos:station:WAVCIS:CSI03:1,2013-04-11T10:00:00Z,29.4412,-92.0613,999.321,11111222 
WAVCIS,ioos:station:WAVCIS:CSI03:1,2013-04-11T11:00:00Z,29.4412,-92.0613,998.883,11111222 
WAVCIS,ioos:station:WAVCIS:CSI03:1,2013-04-11T12:00:00Z,29.4412,-92.0613,998.092,11111222 
WAVCIS,ioos:station:WAVCIS:CSI03:1,2013-04-11T13:00:00Z,29.4412,-92.0613,998.673,11111222 
WAVCIS,ioos:station:WAVCIS:CSI03:1,2013-04-11T14:00:00Z,29.4412,-92.0613,999.97,11111222 
WAVCIS,ioos:station:WAVCIS:CSI03:1,2013-04-11T15:00:00Z,29.4412,-92.0613,1001.488,11111222 
WAVCIS,ioos:station:WAVCIS:CSI03:1,2013-04-11T16:00:00Z,29.4412,-92.0613,1002.541,11111222 
WAVCIS,ioos:station:WAVCIS:CSI03:1,2013-04-11T17:00:00Z,29.4412,-92.0613,1002.773,11111222 
WAVCIS,ioos:station:WAVCIS:CSI03:1,2013-04-11T18:00:00Z,29.4412,-92.0613,1001.463,11111222 
WAVCIS,ioos:station:WAVCIS:CSI03:1,2013-04-11T19:00:00Z,29.4412,-92.0613,1001.063,11111222 
WAVCIS,ioos:station:WAVCIS:CSI03:1,2013-04-11T20:00:00Z,29.4412,-92.0613,1001.877,11111222 
WAVCIS,ioos:station:WAVCIS:CSI03:1,2013-04-11T21:00:00Z,29.4412,-92.0613,1001.63,11111222 
WAVCIS,ioos:station:WAVCIS:CSI03:1,2013-04-11T22:00:00Z,29.4412,-92.0613,1001.295,11111222 